User: anonymous   Login
Location: Unspecified
(0.0000°N, 0.0000°E)
Time: 04:32:30
(UTC+00:00)
Language:

STARLINK-6134 - Orbit

View from above orbital plane
View from above orbital plane
View from above satellite
View from above satellite

Ground track
Ground track

The orbit is defined by the following mean orbital elements,

1 57110U          26145.45078118 +.00000000 +00000-0 +38765-4 0 00002
2 57110  43.0017 207.9110 0001576 272.0213  88.0457 15.26743121    01
Epoch (UTC): 25 May 2026 10:49:07
Eccentricity: 0.0001576
inclination: 43.0017°
perigee height: 484 km
apogee height: 487 km
right ascension of ascending node: 207.9110°
argument of perigee: 272.0213°
revolutions per day: 15.26743121
mean anomaly at epoch: 88.0457°

The dashed part of the orbit path shows where the satellite is in the earth's shadow,  

DLR